Location: Casteau
(50.5142°N, 4.0161°E)
Time: 05:30:25
(UTC+00:00)

Meteor 1-22 Rocket - Pass Details

Date: 18 September 2020
Orbit: 786 x 941 km, 81.2° (Epoch: 22 October)

Event Time Altitude Azimuth Distance (km) Brightness Sun altitude
Exits shadow 20:43:05 54° 188° (S) 1,088 4.5 -26.1°
Maximum altitude 20:44:32 88° 104° (ESE) 917 4.2 -26.3°
Drops below altitude 10° 20:50:37 10° 13° (NNE) 2,645 7.1 -27.0°
Sets 20:53:08 0° 13° (NNE) 3,605 7.8 -27.3°
